This demonstration page uses our WeatherBlox Daily Observations layout. Learn more.

Left ArrowRight Arrow

Hourly Observations for November 30, 2018

Temp ( °F °C ) Dew Point ( °F °C ) Humidity (%) Winds ( mph kmh ) Pressure ( in mb ) Visibility ( mi km ) Precip ( " mm )
12:53 am 00:53 Clear 19 -7.2 16 -8.9 88 88 N N/A 29.70 1006 10 16 N/A
1:53 am 01:53 Clear 20 -6.7 18 -7.8 92 92 N N/A 29.69 1006 10 16 N/A
2:53 am 02:53 Clear 21 -6.1 19 -7.2 92 92 N N/A 29.70 1006 10 16 N/A
3:53 am 03:53 Clear 18 -7.8 16 -8.9 92 92 S 5 7 29.72 1006 10 16 N/A
4:53 am 04:53 Clear 17 -8.3 15 -9.4 92 92 N N/A 29.73 1007 10 16 N/A
5:53 am 05:53 Clear 17 -8.3 14 -10 88 88 N N/A 29.75 1007 10 16 N/A
6:53 am 06:53 Clear 16 -8.9 13 -10.6 88 88 N N/A 29.75 1007 10 16 N/A
7:53 am 07:53 Sunny 18 -7.8 16 -8.9 92 92 E 5 7 29.75 1008 10 16 N/A
8:53 am 08:53 Sunny 21 -6.1 19 -7.2 92 92 E 3 6 29.77 1008 10 16 N/A
9:53 am 09:53 Sunny 25 -3.9 23 -5 92 92 E 3 6 29.78 1008 10 16 N/A
10:53 am 10:53 Sunny 31 -0.6 26 -3.3 82 82 N N/A 29.77 1008 10 16 N/A
11:53 am 11:53 Sunny 35 1.7 27 -2.8 72 72 N N/A 29.75 1008 10 16 N/A
12:53 pm 12:53 Sunny 36 2.2 27 -2.8 70 70 N N/A 29.75 1007 10 16 N/A
1:53 pm 13:53 Sunny 38 3.3 28 -2.2 68 68 N N/A 29.73 1007 10 16 N/A
2:53 pm 14:53 Sunny 39 3.9 27 -2.8 62 62 WNW 5 7 29.74 1007 10 16 N/A
3:53 pm 15:53 Sunny 33 0.6 26 -3.3 75 75 WNW 6 9 29.77 1008 10 16 N/A
4:53 pm 16:53 Clear 27 -2.8 23 -5 85 85 SE 3 6 29.80 1009 10 16 N/A
5:53 pm 17:53 Clear 25 -3.9 22 -5.6 88 88 ESE 5 7 29.80 1009 10 16 N/A
6:53 pm 18:53 Clear 25 -3.9 23 -5 92 92 ESE 3 6 29.80 1009 10 16 N/A
7:53 pm 19:53 Clear 27 -2.8 24 -4.4 89 89 ENE 3 6 29.80 1009 10 16 N/A
8:53 pm 20:53 Clear 28 -2.2 25 -3.9 88 88 E 8 13 29.79 1009 10 16 N/A
9:53 pm 21:53 Clear 25 -3.9 23 -5 92 92 SSW 6 9 29.80 1009 10 16 N/A
10:53 pm 22:53 Clear 25 -3.9 22 -5.6 88 88 WSW 3 6 29.81 1010 10 16 N/A
11:53 pm 23:53 Clear 25 -3.9 23 -5 92 92 N N/A 29.81 1010 10 16 N/A

Powered by AerisWeather